Home > Weather > Bristol > Past weeks

Flag for USA Past Weather in Bristol, Tennessee, USA — Yesterday and Last 2 Weeks

Now
88 °F

Sunny.


Feels Like: 92 °F
Forecast: 71 / 90 °F
Wind: 7 mph from Northwest

Location: Abingdon-Southwest Abingdon

Current Time: Jul 25, 2016 at 1:55:52 PM

Latest Report: Jul 25, 2016 at 1:15 PM


Visibility: 10 mi

Pressure: 30.13 "Hg (28.45 "Hg at 510m altitude)

Humidity: 52%

Dew Point: 68 °F

Location of BristolLocation

Past Weather in Bristol — Graph

°F

Bristol Temperature Yesterday

Maximum temperature yesterday: 93 °F (at 3:15 PM)
Minimum temperature yesterday: 69 °F (at 6:15 AM)
Average temperature yesterday: 80 °F

High & Low Weather Summary for the Past Weeks

 TemperatureHumidityPressure
High94 °F (Jul 23, 4:55 PM)100% (Jul 13, 5:15 AM)30.35 "Hg (Jul 13, 5:15 AM)
Low64 °F (Jul 17, 5:55 AM)26% (Jul 21, 3:55 PM)30.04 "Hg (Jul 23, 6:55 PM)
Average77 °F74%30.17 "Hg
* Reported Jul 10 12:15 PM — Jul 25 12:35 PM, Bristol, Weather by CustomWeather, © 2016

Note: Actual official high and low records may vary slightly from our data, if they occured in-between our weather recording intervals... More about our weather records

Advertising

Bristol Weather History for the Previous 24 Hours

Scroll right to see more
 ConditionsComfort  
Time TempWeatherWind HumidityBarometerVisibility
12:35 PM
Mon, Jul 25
86 °FScattered clouds.6 mph63%30.15 "Hg10 mi
12:15 PM86 °FScattered clouds.8 mph64%30.14 "Hg10 mi
11:55 AM84 °FBroken clouds.8 mph67%30.15 "Hg10 mi
11:35 AM85 °FBroken clouds.8 mph67%30.15 "Hg10 mi
11:15 AM84 °FScattered clouds.7 mph68%30.15 "Hg10 mi
10:55 AM84 °FScattered clouds.6 mph72%30.15 "Hg10 mi
10:35 AM82 °FSunny.9 mph75%30.14 "Hg10 mi
10:15 AM81 °FScattered clouds.7 mph76%30.15 "Hg10 mi
9:55 AM81 °FBroken clouds.5 mph77%30.16 "Hg10 mi
9:15 AM79 °FPartly sunny.No wind81%30.17 "Hg10 mi
8:55 AM77 °FPartly sunny.No wind83%30.16 "Hg10 mi
8:35 AM77 °FSunny.No wind85%30.16 "Hg10 mi
8:15 AM75 °FSunny.No wind90%30.16 "Hg10 mi
7:55 AM74 °FSunny.No wind93%30.15 "Hg10 mi
7:35 AM73 °FSunny.No wind95%30.14 "Hg10 mi
7:15 AM72 °FClear.No wind98%30.14 "Hg7 mi
6:55 AM71 °FFog.No wind97%30.14 "Hg5 mi
6:35 AM71 °FFog.No wind98%30.14 "Hg5 mi
6:15 AM72 °FPassing clouds.No wind98%30.14 "Hg10 mi
5:55 AM72 °FPassing clouds.No wind95%30.14 "Hg7 mi
5:35 AM72 °FPassing clouds.No wind97%30.14 "Hg7 mi
5:15 AM72 °FOvercast.No wind95%30.13 "Hg10 mi
4:55 AM72 °FPassing clouds.No wind96%30.12 "Hg10 mi
4:35 AM72 °FPassing clouds.No wind95%30.12 "Hg10 mi
4:15 AM73 °FPassing clouds.No wind93%30.12 "Hg10 mi
3:55 AM73 °FClear.No wind93%30.11 "Hg10 mi
3:35 AM73 °FClear.No wind94%30.12 "Hg10 mi
3:15 AM73 °FClear.No wind94%30.11 "Hg10 mi
2:55 AM74 °FPassing clouds.No wind95%30.11 "Hg10 mi
2:35 AM74 °FPassing clouds.No wind95%30.11 "Hg10 mi
2:15 AM74 °FClear.No wind93%30.10 "Hg10 mi
1:55 AM74 °FClear.No wind94%30.11 "Hg10 mi
1:35 AM74 °FClear.No wind95%30.11 "Hg10 mi
1:15 AM74 °FClear.No wind94%30.11 "Hg10 mi
12:55 AM74 °FClear.3 mph93%30.11 "Hg10 mi
12:15 AM76 °FClear.No wind93%30.12 "Hg10 mi
11:55 PM
Sun, Jul 24
76 °FPassing clouds.No wind90%30.12 "Hg10 mi
11:15 PM77 °FOvercast.3 mph92%30.13 "Hg10 mi
10:55 PM77 °FMostly cloudy.No wind90%30.14 "Hg10 mi
10:35 PM77 °FOvercast.No wind89%30.14 "Hg10 mi
10:15 PM78 °FOvercast.No wind88%30.13 "Hg10 mi
9:55 PM78 °FOvercast.No wind85%30.12 "Hg10 mi
9:35 PM78 °FMore clouds than sun.5 mph85%30.11 "Hg10 mi
9:15 PM82 °FRain. Cloudy.No wind60%30.11 "Hg4 mi
8:55 PM82 °FRain. Overcast.9 mph70%30.10 "Hg10 mi
8:35 PM82 °FOvercast.No wind74%30.10 "Hg10 mi
8:15 PM83 °FMore clouds than sun.No wind68%30.09 "Hg10 mi
7:55 PM85 °FMore clouds than sun.3 mph68%30.09 "Hg10 mi
7:15 PM86 °FMostly cloudy.3 mph60%30.08 "Hg10 mi
6:55 PM88 °FBroken clouds.6 mph55%30.08 "Hg10 mi
6:35 PM92 °FPartly sunny.14 mph46%30.08 "Hg10 mi
6:15 PM92 °FScattered clouds.8 mph41%30.08 "Hg10 mi
5:55 PM92 °FScattered clouds.8 mph41%30.08 "Hg10 mi
5:35 PM92 °FScattered clouds.5 mph42%30.08 "Hg10 mi
5:15 PM92 °FPartly sunny.3 mph42%30.07 "Hg10 mi
4:55 PM92 °FPartly sunny.No wind44%30.07 "Hg10 mi
4:35 PM92 °FScattered clouds.3 mph43%30.08 "Hg10 mi
4:15 PM93 °FSunny.5 mph41%30.09 "Hg10 mi
3:55 PM91 °FSunny.5 mph44%30.09 "Hg10 mi
3:35 PM92 °FScattered clouds.6 mph44%30.09 "Hg10 mi
3:15 PM93 °FSunny.No wind43%30.09 "Hg10 mi
2:55 PM91 °FSunny.No wind45%30.10 "Hg10 mi
2:35 PM91 °FSunny.3 mph49%30.11 "Hg10 mi
2:15 PM90 °FSunny.6 mph50%30.12 "Hg10 mi
1:55 PM89 °FSunny.5 mph51%30.13 "Hg10 mi
1:15 PM88 °FSunny.No wind56%30.14 "Hg10 mi
Weather by CustomWeather, © 2016

See weather overviewHow to use our weather pages